Location: Bon Acre
(42.6442°N, 73.5758°W)
Time: 03:23:31
(UTC+00:00)

SL-08 R/B - Pass Details

Date: 11 March 2026
Orbit: 946 x 992 km, 83.0° (Epoch: 13 April)

Event Time Altitude Azimuth Distance (km) Brightness Sun altitude
Exits shadow 02:40:32 21° 0° (N) 2,015 6.4 -39.7°
Drops below altitude 10° 02:42:21 10° 4° (N) 2,677 7.1 -39.9°
Sets 02:44:52 0° 6° (N) 3,625 7.9 -40.3°
